Location: Mentone
(34.5413°N, 85.5351°W)
Time: 03:27:22
(UTC-06:00)

A-11 Canister half - Visible Passes

Search period start: 23 February 2017 00:00
Search period end: 05 March 2017 00:00
Orbit: 1528 x 1682 km, 47.3° (Epoch: 23 February)

Date Brightness Start Highest point End Pass type
(mag) Time Alt. Az. Time Alt. Az. Time Alt. Az.
23 Feb 9.3 18:41:09 10° WSW 18:50:37 63° NNW 18:58:58 14° NE visible
23 Feb 9.8 20:48:34 10° WNW 20:57:10 38° N 20:57:16 38° N visible
23 Feb 11.2 22:55:04 10° NW 22:55:35 12° NW 22:55:35 12° NW visible
24 Feb 9.3 18:19:28 10° WSW 18:29:00 65° NNW 18:38:19 10° NE visible
24 Feb 9.8 20:26:52 10° WNW 20:35:29 38° N 20:37:00 36° NNE visible
24 Feb 10.9 22:33:28 10° NW 22:35:19 17° NW 22:35:19 17° NW visible
25 Feb 9.3 17:57:48 10° WSW 18:07:23 67° NNW 18:16:45 10° NE visible
25 Feb 9.8 20:05:10 10° WNW 20:13:50 38° N 20:16:42 32° NNE visible
25 Feb 10.6 22:11:51 10° NW 22:15:00 23° NW 22:15:00 23° NW visible
26 Feb 9.8 19:43:26 10° WNW 19:52:09 39° N 19:56:22 27° NE visible
26 Feb 10.3 21:50:14 10° NW 21:54:40 29° NW 21:54:40 29° NW visible
27 Feb 9.8 19:21:44 10° WNW 19:30:29 39° N 19:36:00 22° NE visible
27 Feb 10.0 21:28:36 10° NW 21:34:19 34° NNW 21:34:19 34° NNW visible
28 Feb 9.8 19:00:01 10° WNW 19:08:49 40° N 19:15:38 17° NE visible
28 Feb 9.8 21:06:59 10° NW 21:13:57 39° NNW 21:13:57 39° NNW visible
01 Mar 9.8 18:38:17 10° W 18:47:09 40° NNW 18:55:16 12° NE visible
01 Mar 9.6 20:45:21 10° NW 20:53:34 42° N 20:53:34 42° N visible
01 Mar 11.0 22:50:42 10° NW 22:51:52 15° NW 22:51:52 15° NW visible
02 Mar 9.9 18:16:33 10° W 18:25:28 41° NNW 18:34:13 10° ENE visible
02 Mar 9.5 20:23:42 10° NW 20:32:32 42° NNE 20:33:11 41° NNE visible
02 Mar 10.7 22:29:06 10° NW 22:31:29 20° NW 22:31:29 20° NW visible
03 Mar 9.9 17:54:50 10° W 18:03:49 42° NNW 18:12:36 10° NE visible
03 Mar 9.6 20:02:03 10° WNW 20:10:52 41° NNE 20:12:48 37° NE visible
03 Mar 10.4 22:07:31 10° NW 22:11:07 27° NW 22:11:07 27° NW visible
04 Mar 9.7 19:40:24 10° WNW 19:49:12 40° N 19:52:26 32° NE visible
04 Mar 10.1 21:45:56 10° NW 21:50:43 35° NW 21:50:43 35° NW visible
